• In Italy
  • List of Countries
  • For 7 days
  • Water Temperature
  • Satellite Maps
  • Weather Map
  • Weather Widgets
  • user-avatar
    Login

    Hourly Weather Shillong

    Today, 21 September, Thursday

    Time Temperature Precipitation Wind Pressure Humidity
    00:00 +18°C° 0.1 mm 1 mps 631 mmHg 94%
    01:00 +18°C° 0.3 mm 1 mps 631 mmHg 94%
    02:00 +18°C° 0.3 mm 1 mps 631 mmHg 94%
    03:00 +18°C° 0.3 mm 1 mps 631 mmHg 94%
    04:00 +18°C° 0.3 mm 1 mps 631 mmHg 94%
    05:00 +18°C° 0.3 mm 1 mps 631 mmHg 95%
    06:00 +18°C° 0.3 mm 1 mps 631 mmHg 95%
    07:00 +19°C° 0.3 mm 1 mps 632 mmHg 90%
    08:00 +21°C° 0.3 mm 1 mps 633 mmHg 86%
    09:00 +22°C° 0.3 mm 1 mps 633 mmHg 82%
    10:00 +23°C° 0.7 mm 1 mps 633 mmHg 81%
    11:00 +23°C° 0.7 mm 1 mps 633 mmHg 80%
    12:00 +23°C° 0.7 mm 1 mps 633 mmHg 80%
    13:00 +24°C° 0.7 mm 1 mps 632 mmHg 79%
    14:00 +24°C° 0.7 mm 1 mps 632 mmHg 78%
    15:00 +24°C° 0.7 mm 1 mps 631 mmHg 77%
    16:00 +23°C° 0.3 mm 1 mps 631 mmHg 82%
    17:00 +22°C° 0.3 mm 1 mps 630 mmHg 86%
    18:00 +21°C° 0.3 mm 1 mps 630 mmHg 91%
    19:00 +20°C° 1.1 mm 1 mps 630 mmHg 92%
    20:00 +20°C° 1.1 mm 1 mps 631 mmHg 93%
    21:00 +20°C° 1.1 mm 1 mps 631 mmHg 94%
    22:00 +19°C° 0.6 mm 1 mps 631 mmHg 94%
    23:00 +19°C° 0.6 mm 1 mps 631 mmHg 93%

    Tomorrow, 22 September, Friday

    Time Temperature Precipitation Wind Pressure Humidity
    00:00 +19°C° 0.6 mm 1 mps 631 mmHg 93%
    01:00 +18°C° 0.3 mm 1 mps 631 mmHg 93%
    02:00 +18°C° 0.3 mm 1 mps 630 mmHg 94%
    03:00 +18°C° 0.3 mm 1 mps 630 mmHg 94%
    04:00 +18°C° 0 mm 1 mps 630 mmHg 94%
    05:00 +18°C° 0 mm 1 mps 630 mmHg 94%
    06:00 +18°C° 0 mm 1 mps 631 mmHg 94%
    07:00 +20°C° 0 mm 1 mps 632 mmHg 88%
    08:00 +22°C° 0 mm 1 mps 633 mmHg 83%
    09:00 +23°C° 0 mm 1 mps 634 mmHg 77%
    10:00 +23°C° 0.6 mm 1 mps 634 mmHg 78%
    11:00 +24°C° 0.6 mm 1 mps 633 mmHg 78%
    12:00 +24°C° 0.6 mm 1 mps 633 mmHg 79%
    13:00 +24°C° 0.6 mm 1 mps 632 mmHg 80%
    14:00 +24°C° 0.6 mm 1 mps 631 mmHg 81%
    15:00 +24°C° 0.6 mm 1 mps 631 mmHg 82%
    16:00 +23°C° 0.6 mm 1 mps 631 mmHg 85%
    17:00 +22°C° 0.6 mm 1 mps 630 mmHg 89%
    18:00 +19°C° 0.6 mm 0 mps 630 mmHg 92%
    19:00 +21°C° 0.4 mm 1 mps 631 mmHg 93%
    20:00 +20°C° 0.4 mm 1 mps 631 mmHg 93%
    21:00 +20°C° 0.4 mm 1 mps 632 mmHg 93%
    22:00 +20°C° 0.5 mm 1 mps 631 mmHg 94%
    23:00 +20°C° 0.5 mm 1 mps 631 mmHg 94%

    Day after tomorrow, 23 September, Saturday

    Time Temperature Precipitation Wind Pressure Humidity
    00:00 +19°C° 0.5 mm 1 mps 631 mmHg 94%
    01:00 +19°C° 0.4 mm 1 mps 631 mmHg 94%
    02:00 +19°C° 0.4 mm 1 mps 631 mmHg 94%
    03:00 +19°C° 0.4 mm 1 mps 630 mmHg 94%
    04:00 +19°C° 0 mm 1 mps 630 mmHg 94%
    05:00 +18°C° 0 mm 1 mps 631 mmHg 94%
    06:00 +18°C° 0 mm 1 mps 631 mmHg 94%
    07:00 +20°C° 0.1 mm 1 mps 632 mmHg 88%
    08:00 +22°C° 0.1 mm 1 mps 633 mmHg 83%
    09:00 +24°C° 0.1 mm 1 mps 634 mmHg 77%
    10:00 +24°C° 0.6 mm 1 mps 634 mmHg 77%
    11:00 +24°C° 0.6 mm 1 mps 633 mmHg 77%
    12:00 +24°C° 0.6 mm 1 mps 633 mmHg 78%
    13:00 +24°C° 0.9 mm 1 mps 633 mmHg 79%
    14:00 +24°C° 0.9 mm 1 mps 632 mmHg 79%
    15:00 +24°C° 0.9 mm 1 mps 631 mmHg 80%
    16:00 +23°C° 0.6 mm 1 mps 631 mmHg 84%
    17:00 +20°C° 0.6 mm 0 mps 631 mmHg 87%
    18:00 +19°C° 0.6 mm 0 mps 631 mmHg 90%
    19:00 +19°C° 0.9 mm 0 mps 631 mmHg 91%
    20:00 +19°C° 0.9 mm 0 mps 631 mmHg 92%
    21:00 +19°C° 0.9 mm 0 mps 632 mmHg 93%
    22:00 +20°C° 1.3 mm 1 mps 632 mmHg 93%
    23:00 +20°C° 1.3 mm 1 mps 632 mmHg 93%

    24 September, Sunday

    Time Temperature Precipitation Wind Pressure Humidity
    00:00 +20°C° 1.3 mm 1 mps 631 mmHg 93%
    01:00 +20°C° 0.9 mm 1 mps 631 mmHg 94%
    02:00 +20°C° 0.9 mm 1 mps 631 mmHg 94%
    03:00 +19°C° 0.9 mm 1 mps 630 mmHg 94%
    04:00 +19°C° 0 mm 1 mps 631 mmHg 94%
    05:00 +17°C° 0 mm 0 mps 631 mmHg 94%
    06:00 +17°C° 0 mm 0 mps 631 mmHg 94%
    07:00 +19°C° 0.1 mm 0 mps 632 mmHg 90%
    08:00 +20°C° 0.1 mm 0 mps 633 mmHg 86%
    09:00 +21°C° 0.1 mm 0 mps 633 mmHg 82%
    10:00 +24°C° 0.7 mm 1 mps 633 mmHg 81%
    11:00 +24°C° 0.7 mm 1 mps 633 mmHg 80%
    12:00 +24°C° 0.7 mm 1 mps 633 mmHg 78%
    13:00 +24°C° 0.8 mm 1 mps 632 mmHg 78%
    14:00 +24°C° 0.8 mm 1 mps 631 mmHg 78%
    15:00 +24°C° 0.8 mm 1 mps 631 mmHg 77%
    16:00 +24°C° 0.6 mm 1 mps 630 mmHg 81%
    17:00 +21°C° 0.6 mm 0 mps 630 mmHg 85%
    18:00 +20°C° 0.6 mm 0 mps 630 mmHg 89%
    19:00 +19°C° 0.6 mm 0 mps 630 mmHg 90%
    20:00 +19°C° 0.6 mm 0 mps 631 mmHg 91%
    21:00 +19°C° 0.6 mm 0 mps 631 mmHg 92%
    22:00 +19°C° 0.4 mm 0 mps 631 mmHg 93%
    23:00 +18°C° 0.4 mm 0 mps 631 mmHg 93%

    25 September, Monday

    Time Temperature Precipitation Wind Pressure Humidity
    00:00 +18°C° 0.4 mm 0 mps 630 mmHg 93%
    01:00 +18°C° 0.3 mm 0 mps 630 mmHg 93%
    02:00 +18°C° 0.3 mm 0 mps 630 mmHg 94%
    03:00 +18°C° 0.3 mm 0 mps 630 mmHg 94%
    04:00 +18°C° 0.1 mm 0 mps 630 mmHg 94%
    05:00 +17°C° 0.1 mm 0 mps 630 mmHg 94%
    06:00 +17°C° 0.1 mm 0 mps 630 mmHg 94%
    07:00 +21°C° 0.1 mm 1 mps 631 mmHg 89%
    08:00 +22°C° 0.1 mm 1 mps 632 mmHg 85%
    09:00 +24°C° 0.1 mm 1 mps 633 mmHg 80%
    10:00 +24°C° 0.8 mm 1 mps 632 mmHg 78%
    11:00 +25°C° 0.8 mm 1 mps 632 mmHg 75%
    12:00 +25°C° 0.8 mm 1 mps 632 mmHg 73%
    13:00 +25°C° 0.9 mm 1 mps 631 mmHg 73%
    14:00 +25°C° 0.9 mm 1 mps 631 mmHg 73%
    15:00 +26°C° 0.9 mm 1 mps 630 mmHg 73%
    16:00 +24°C° 0.5 mm 1 mps 630 mmHg 77%
    17:00 +21°C° 0.5 mm 0 mps 629 mmHg 82%
    18:00 +20°C° 0.5 mm 0 mps 629 mmHg 86%
    19:00 +20°C° 0.2 mm 0 mps 629 mmHg 87%
    20:00 +19°C° 0.2 mm 0 mps 630 mmHg 88%
    21:00 +19°C° 0.2 mm 0 mps 630 mmHg 89%
    22:00 +19°C° 0.5 mm 0 mps 630 mmHg 89%
    23:00 +18°C° 0.5 mm 0 mps 630 mmHg 90%

    26 September, Tuesday

    Time Temperature Precipitation Wind Pressure Humidity
    00:00 +18°C° 0.5 mm 0 mps 629 mmHg 90%
    01:00 +18°C° 0.8 mm 0 mps 629 mmHg 91%
    02:00 +18°C° 0.8 mm 0 mps 629 mmHg 91%
    03:00 +17°C° 0.8 mm 0 mps 629 mmHg 91%
    04:00 +17°C° 0.4 mm 0 mps 629 mmHg 92%
    05:00 +19°C° 0.4 mm 1 mps 629 mmHg 92%
    06:00 +19°C° 0.4 mm 1 mps 629 mmHg 92%
    07:00 +21°C° 0.5 mm 1 mps 630 mmHg 87%
    08:00 +23°C° 0.5 mm 1 mps 631 mmHg 81%
    09:00 +24°C° 0.5 mm 1 mps 632 mmHg 76%
    10:00 +25°C° 1.1 mm 1 mps 632 mmHg 72%
    11:00 +26°C° 1.1 mm 1 mps 632 mmHg 69%
    12:00 +27°C° 1.1 mm 1 mps 632 mmHg 66%
    13:00 +27°C° 2.2 mm 1 mps 631 mmHg 66%
    14:00 +27°C° 2.2 mm 1 mps 630 mmHg 66%
    15:00 +27°C° 2.2 mm 1 mps 630 mmHg 66%
    16:00 +23°C° 0.6 mm 0 mps 629 mmHg 71%
    17:00 +22°C° 0.6 mm 0 mps 629 mmHg 77%
    18:00 +20°C° 0.6 mm 0 mps 629 mmHg 83%
    19:00 +20°C° 1 mm 0 mps 629 mmHg 84%
    20:00 +19°C° 1 mm 0 mps 629 mmHg 85%
    21:00 +21°C° 1 mm 1 mps 630 mmHg 86%
    22:00 +21°C° 0.2 mm 1 mps 630 mmHg 87%
    23:00 +19°C° 0.2 mm 0 mps 629 mmHg 87%
    Show more